EW6866 Weather Reports


time (UTC)temp
F
wind
direction
speed
knots
gust
knots
rain 1hr
in
rain 24hr
in
rain mn
in
humidity
%
barometer
mb
20260510160025 80 269 0.9 4.3 0.00 0.00 0.00 60 1014.0
20260510154504 81 181 0.0 3.5 0.00 0.00 0.00 62 1013.9
20260510153004 80 78 0.0 0.9 0.00 0.00 0.00 57 1014.0
20260510151525 79 70 0.0 0.9 0.00 0.00 0.00 62 1014.1
20260510150004 78 72 0.0 1.7 0.00 0.00 0.00 62 1014.2
20260510144504 78 68 0.0 0.9 0.00 0.00 0.00 72 1014.2
20260510143004 77 160 0.0 1.7 0.00 0.00 0.00 73 1014.0
20260510141504 75 178 0.0 1.7 0.00 0.00 0.00 77 1013.8
20260510140004 74 167 0.0 1.7 0.00 0.00 0.00 81 1013.7
20260510134503 72 171 0.0 1.7 0.00 0.00 0.00 85 1013.7
20260510133004 71 177 0.0 2.6 0.00 0.00 0.00 88 1013.7
20260510131504 69 138 0.0 2.6 0.00 0.00 0.00 93 1013.7
20260510130005 68 167 0.0 2.6 0.00 0.00 0.00 96 1013.6
20260510124503 67 151 0.0 1.7 0.00 0.00 0.00 98 1013.3
20260510123004 67 0 0.0 0.0 0.00 0.00 0.00 98 1013.2
20260510121504 66 135 0.0 0.9 0.00 0.00 0.00 98 1013.1
20260510120004 66 0 0.0 0.0 0.00 0.00 0.00 98 1012.9
20260510114503 65 0 0.0 0.0 0.00 0.00 0.00 99 1012.8
20260510113004 64 0 0.0 0.0 0.00 0.00 0.00 98 1012.8
20260510111504 64 0 0.0 0.0 0.00 0.00 0.00 98 1012.6
20260510110005 63 0 0.0 0.0 0.00 0.00 0.00 98 1012.5
20260510104503 62 0 0.0 0.0 0.00 0.00 0.00 97 1012.2
20260510103003 63 0 0.0 0.0 0.00 0.00 0.00 98 1012.0
20260510101504 62 0 0.0 0.0 0.00 0.00 0.00 97 1011.7
20260510100004 62 0 0.0 0.0 0.00 0.00 0.00 97 1011.6
20260510094504 62 0 0.0 0.0 0.00 0.00 0.00 97 1011.4
20260510093004 63 0 0.0 0.0 0.00 0.00 0.00 97 1011.2
20260510091503 63 0 0.0 0.0 0.00 0.00 0.00 97 1011.2
20260510090004 63 0 0.0 0.0 0.00 0.00 0.00 97 1011.0
20260510084503 63 0 0.0 0.0 0.00 0.00 0.00 97 1011.0
20260510083004 62 0 0.0 0.0 0.00 0.00 0.00 97 1010.9
20260510081504 62 0 0.0 0.0 0.00 0.00 0.00 96 1010.9
20260510080004 63 0 0.0 0.0 0.00 0.00 0.00 97 1010.9
20260510074505 63 0 0.0 0.0 0.00 0.00 0.00 96 1010.9
20260510073005 63 0 0.0 0.0 0.00 0.00 0.00 96 1010.8
20260510071506 63 0 0.0 0.0 0.00 0.00 0.00 97 1010.6
20260510070005 63 0 0.0 0.0 0.00 0.00 0.00 96 1010.6
20260510064505 63 0 0.0 0.0 0.00 0.00 0.00 96 1010.6
20260510063006 63 0 0.0 0.0 0.00 0.00 0.00 96 1010.6
20260510061505 64 0 0.0 0.0 0.00 0.00 0.00 96 1010.7
20260510060006 63 0 0.0 0.0 0.00 0.00 0.00 95 1010.7
20260510054526 63 0 0.0 0.0 0.00 0.00 0.00 95 1010.9
20260510053005 63 0 0.0 0.0 0.00 0.00 0.00 95 1011.0
20260510051505 63 0 0.0 0.0 0.00 0.00 0.00 95 1011.2
20260510050006 63 0 0.0 0.0 0.00 0.00 0.00 94 1011.1
20260510044505 63 0 0.0 0.0 0.00 0.00 0.00 94 1011.1
20260510043005 63 0 0.0 0.0 0.00 0.00 0.00 93 1010.9
20260510041505 63 0 0.0 0.0 0.00 0.00 0.00 92 1010.8
20260510040006 63 0 0.0 0.0 0.00 0.00 0.00 92 1010.8
20260510034506 63 0 0.0 0.0 0.00 0.00 0.00 92 1010.7
20260510033026 63 0 0.0 0.0 0.00 0.00 0.00 91 1010.6
20260510031504 64 0 0.0 0.0 0.00 0.00 0.00 91 1010.4
20260510030005 64 0 0.0 0.0 0.00 0.00 0.00 90 1010.5
20260510024505 64 0 0.0 0.0 0.00 0.00 0.00 90 1010.4
20260510023005 64 0 0.0 0.0 0.00 0.00 0.00 90 1010.3
20260510021506 64 0 0.0 0.0 0.00 0.00 0.00 89 1010.4
20260510020005 65 0 0.0 0.0 0.00 0.00 0.00 89 1010.3
20260510014505 65 0 0.0 0.0 0.00 0.00 0.00 88 1010.2
20260510013005 66 0 0.0 0.0 0.00 0.00 0.00 87 1010.2
20260510011505 66 0 0.0 0.0 0.00 0.00 0.00 86 1010.3
20260510010005 67 0 0.0 0.0 0.00 0.00 0.00 85 1010.1
20260510004505 68 0 0.0 0.0 0.00 0.00 0.00 83 1009.9
20260510003005 68 0 0.0 0.0 0.00 0.00 0.00 82 1009.5
20260510001504 69 0 0.0 0.0 0.00 0.00 0.00 81 1009.6
20260510000005 70 0 0.0 0.0 0.00 0.00 0.00 79 1009.6
20260509234505 71 0 0.0 0.0 0.00 0.00 0.00 77 1009.4
20260509233005 72 0 0.0 0.0 0.00 0.00 0.00 75 1009.2
20260509231504 73 0 0.0 0.0 0.00 0.00 0.00 74 1009.3
20260509230004 73 163 0.0 0.9 0.00 0.00 0.00 72 1009.3
20260509224525 74 135 0.0 0.9 0.00 0.00 0.00 70 1009.2
20260509223005 74 166 0.9 4.3 0.00 0.00 0.00 69 1009.3
20260509221526 74 136 0.0 2.6 0.00 0.00 0.00 68 1009.2
20260509220005 75 239 0.0 0.9 0.00 0.00 0.00 66 1009.2
20260509214504 75 219 0.0 0.9 0.00 0.00 0.00 66 1009.1
20260509213005 75 279 0.0 2.6 0.00 0.00 0.00 65 1008.9
20260509211504 75 146 0.0 2.6 0.00 0.00 0.00 64 1009.0
20260509210005 75 215 0.0 2.6 0.00 0.00 0.00 64 1009.0
20260509204505 75 266 0.0 2.6 0.00 0.00 0.00 63 1009.1
20260509203006 76 234 0.9 2.6 0.00 0.00 0.00 60 1009.2
20260509201526 77 208 0.9 6.1 0.00 0.00 0.00 58 1009.1
20260509200005 79 151 0.9 5.2 0.00 0.00 0.00 58 1009.0
20260509194504 78 232 0.9 5.2 0.00 0.00 0.00 56 1009.2
20260509193004 76 165 0.9 4.3 0.00 0.00 0.00 57 1009.2
20260509191505 77 209 0.9 7.0 0.00 0.00 0.00 55 1009.7
20260509190005 77 156 0.9 7.0 0.00 0.00 0.00 53 1009.8
20260509184504 78 173 0.9 7.8 0.00 0.00 0.00 51 1009.9
20260509183004 77 168 0.9 4.3 0.00 0.00 0.00 51 1010.0
20260509181504 76 167 1.7 7.0 0.00 0.00 0.00 51 1010.0
20260509180005 76 192 1.7 8.7 0.00 0.00 0.00 52 1009.9
20260509174505 76 198 0.9 6.1 0.00 0.00 0.00 51 1010.0
20260509173025 76 226 1.7 7.8 0.00 0.00 0.00 51 1010.2
20260509171504 76 186 1.7 7.8 0.00 0.00 0.00 53 1010.6
20260509170004 75 177 0.9 7.8 0.00 0.00 0.00 55 1010.6
20260509164504 75 202 0.9 7.0 0.00 0.00 0.00 58 1010.4
20260509163004 75 197 1.7 7.8 0.00 0.00 0.00 59 1010.7
20260509161504 74 236 0.9 5.2 0.00 0.00 0.00 63 1010.5